Regional Weather Roundup
Issued by NWS Portland, ME

Current Version | Previous Version | Text Only | Print | Product List | Glossary Off
Versions: 1 2 3 4 5 6 7 8 9 10 11 12 13 14 15 16 17 18 19 20 21 22 23 24 25 26 27 28 29 30 31 32 33 34 35 36 37 38 39 40 41 42 43 44 45 46 47 48 49 50
000 ASUS41 KGYX 240210 RWRGYX WEATHER ROUNDUP FOR MAINE AND NEW HAMPSHIRE NATIONAL WEATHER SERVICE GRAY ME 1000 PM EDT FRI JUN 23 2017 MEZ002-005-006-010-012-015-018-020-021-024-026-027-029-240300- MAINE CITY SKY/WX TMP DP RH WIND PRES REMARKS PORTLAND MOCLDY 65 62 90 S12G21 29.57R SANFORD MOCLDY 73 67 81 SW7 29.57R BAR HARBOR CLOUDY 62 61 96 S8 29.64F FOG WISCASSET CLOUDY 68 65 90 VRB6 29.60F ROCKLAND CLOUDY 60 59 96 E3 29.61F FOG FRYEBURG CLOUDY 75 69 81 S3 29.55S LEWISTONAUBURN MOCLDY 66 64 93 SE6 29.56F AUGUSTA CLOUDY 67 64 90 S8 29.58F WATERVILLE CLOUDY 67 65 93 CALM 29.55F BANGOR CLOUDY 65 63 93 S8 29.60F GREENVILLE N/A 64 64 100 MISG 29.56F MILLINOCKET CLOUDY 64 64 100 SE3 29.58F HOULTON CLOUDY 62 62 100 SE5 29.60F PRESQUE ISLE LGT RAIN 62 60 93 S12 29.58F FRENCHVILLE LGT RAIN 61 60 97 SE10 29.56F VSB 3/4 CARIBOU LGT RAIN 62 60 93 S8 29.57F $$ NHZ002-005-008-009-011-012-014-240300- NEW HAMPSHIRE CITY SKY/WX TMP DP RH WIND PRES REMARKS PORTSMOUTH MOCLDY 77 69 76 SW13 29.56R ROCHESTER CLOUDY 73 67 81 VRB3 29.57R NASHUA CLOUDY 77 71 82 CALM 29.60R MANCHESTER CLOUDY 78 68 71 S12 29.57R CONCORD CLOUDY 75 69 81 S7 29.58R LACONIA PTCLDY N/A N/A N/A S13 29.57R PLYMOUTH CLOUDY 71 69 95 CALM 29.56R FOG BERLIN CLOUDY 70 67 90 SE3 29.56S WHITEFIELD CLOUDY 71 68 90 CALM 29.57R JAFFREY MOCLDY 74 72 93 SW8G17 29.63S KEENE CLOUDY 76 70 82 S7 29.60R LEBANON CLOUDY 76 69 79 S9 29.55S MT WASHINGTON LGT RAIN 55 55 100 W40 N/A VSB 0 $$ VTZ005-007-008-240300- VERMONT CITY SKY/WX TMP DP RH WIND PRES REMARKS ST JOHNSBURY N/A 71 71 100 MISG 29.53R MONTPELIER MOCLDY 70 69 97 SE5 29.60S BURLINGTON CLOUDY 75 71 87 S10 29.51R $$ MAZ007-012-024-CTZ003-RIZ002-NYZ038-NYZ072-240300- SOUTHERN NEW ENGLAND AND NY CITY SKY/WX TMP DP RH WIND PRES REMARKS BOSTON PTCLDY 75 69 81 S12G22 29.61R WORCESTER MOCLDY 72 68 87 SW12 29.66R NANTUCKET CLOUDY 64 64 100 S15 29.72S PROVIDENCE MOCLDY 73 71 93 S10 29.67R HARTFORD CLOUDY 77 71 82 S9 29.62S ALBANY LGT RAIN 78 70 76 S9 29.57S NEW YORK CITY CLOUDY 79 74 84 SW9 29.64R $$ ANZ081-ANZ082-ANZ150-NHZ014-MEZ023>029-240300- COASTAL MARINE OBSERVATIONS STATION/POSITION TIME TEMP WIND PRES WAVE AIR SEA DIR/SP/G HT/PER (UTC) (F) (DEG/KT/KT) (MB) (FT/S) MATINICUS ROCK 0100 58 180/ 27/ 30 1001.9F ISLE OF SHOALS 0100 67 170/ 17/ 18 1001.2R JEFFREYS LEDGE 0106 58 N/A 5/ 5 CASHES LEDGE BUO 0150 62 59 1002.2F 5/ 6 GEORGES BANK BUO 0050 61 54 1009.9 3/ 8 $$ .............KEY.............. WCI - WIND CHILL TC - TEMPERATURE IN CELSIUS VSB - VISIBILITY IN MILES HX - HEAT INDEX FAIR- INDICATES FEW OR NO CLOUDS BELOW 12,000 FT, WITH NO SIGNIFICANT WEATHER AND/OR OBSTRUCTIONS TO VISIBILITY.

USA.gov is the U.S. government's official web portal to all federal, state and local government web resources and services.